シューメーカー-リニア彗星

146P/Shoemaker-LINEAR (2008)

English version
Home page
Updated on March 11, 2009

---------------------------------------------------------------------

・ プロフィール

・ 軌道要素

The following orbital elements are taken from MPC 54168:

Epoch 2008 May 14.0 TT = JDT 2454600.5
T 2008 May 21.3753 TT                                   MPC
q   1.417460             (2000.0)            P               Q
n   0.1219732      Peri.  316.8314      +0.9395043      -0.1335976
a   4.026796       Node    53.5713      +0.3021810      +0.7568683
e   0.647993       Incl.   23.0796      -0.1613019      +0.6397672
P   8.08
From 28 observations 1984-2000, mean residual 0".9.

・ 星図

・ 光度変化

        m1 = 13.5 + 5 logΔ + 15.0 log r

---------------------------------------------------------------------

軌道要素はMPCのEphemerides and Orbital Elementsに掲載されたものです。
星図はステラナビゲータ Ver.8 (アストロアーツ) で作成したものです。
光度グラフはComet for Windowsで作成したものです。

---------------------------------------------------------------------

Copyright(C) Seiichi Yoshida (comet@aerith.net). All rights reserved.